TimeMST,TemperatureF,Dew PointF,Humidity,Sea Level PressureIn,VisibilityMPH,Wind Direction,Wind SpeedMPH,Gust SpeedMPH,PrecipitationIn,Events,Conditions,WindDirDegrees,DateUTC
12:53 AM,32.0,21.2,64,29.92,10.0,ENE,8.1,-,N/A,,Mostly Cloudy,70,2013-03-08 07:53:00
12:58 AM,33.6,21.4,61,29.97,10.0,East,8.1,-,N/A,,Mostly Cloudy,80,2013-03-08 07:58:00
1:58 AM,31.8,21.0,64,29.96,10.0,ENE,6.9,-,N/A,,Overcast,70,2013-03-08 08:58:00
2:58 AM,27.9,19.0,69,29.96,10.0,NNE,4.6,-,N/A,,Overcast,30,2013-03-08 09:58:00
3:58 AM,30.7,20.1,65,29.94,10.0,North,2.3,-,N/A,,Overcast,360,2013-03-08 10:58:00
4:58 AM,30.2,21.2,69,29.95,10.0,NW,8.1,-,N/A,,Overcast,310,2013-03-08 11:58:00
5:58 AM,34.2,21.4,60,29.94,10.0,North,3.5,-,N/A,,Overcast,10,2013-03-08 12:58:00
6:58 AM,32.9,22.5,65,29.95,10.0,WSW,3.5,-,N/A,,Overcast,240,2013-03-08 13:58:00
7:58 AM,32.5,22.8,67,29.95,10.0,SW,2.3,-,N/A,,Overcast,230,2013-03-08 14:58:00
8:58 AM,34.0,24.3,68,29.96,10.0,SSW,5.8,-,N/A,,Overcast,200,2013-03-08 15:58:00
9:58 AM,37.0,23.2,57,29.97,10.0,SSW,2.3,-,N/A,,Overcast,210,2013-03-08 16:58:00
10:58 AM,40.5,23.2,50,29.95,10.0,Variable,2.3,-,N/A,,Mostly Cloudy,0,2013-03-08 17:58:00
11:58 AM,45.3,22.6,41,29.94,10.0,Variable,3.5,-,N/A,,Mostly Cloudy,0,2013-03-08 18:58:00
12:33 PM,48.2,21.2,34,29.89,10.0,Variable,6.9,-,N/A,,Scattered Clouds,0,2013-03-08 19:33:00
12:53 PM,48.2,21.2,34,29.88,10.0,NNW,5.8,-,N/A,,Mostly Cloudy,340,2013-03-08 19:53:00
12:58 PM,48.4,21.4,35,29.91,10.0,West,5.8,-,N/A,,Mostly Cloudy,280,2013-03-08 19:58:00
1:38 PM,48.2,21.2,34,29.86,10.0,West,3.5,-,N/A,,Scattered Clouds,280,2013-03-08 20:38:00
1:58 PM,49.5,21.0,33,29.88,10.0,Variable,5.8,-,N/A,,Clear,0,2013-03-08 20:58:00
2:58 PM,50.9,19.8,29,29.88,10.0,NW,9.2,-,N/A,,Scattered Clouds,310,2013-03-08 21:58:00
3:58 PM,51.3,19.2,28,29.87,10.0,NW,10.4,-,N/A,,Partly Cloudy,310,2013-03-08 22:58:00
4:58 PM,51.8,19.6,28,29.86,10.0,NW,11.5,-,N/A,,Clear,320,2013-03-08 23:58:00
5:58 PM,50.4,18.5,28,29.86,10.0,NW,15.0,-,N/A,,Clear,310,2013-03-09 00:58:00
6:58 PM,44.1,18.3,36,29.88,10.0,WNW,9.2,-,N/A,,Clear,300,2013-03-09 01:58:00
7:58 PM,39.7,16.7,39,29.92,10.0,WNW,8.1,-,N/A,,Clear,300,2013-03-09 02:58:00
8:58 PM,34.7,16.2,47,29.94,10.0,WNW,6.9,-,N/A,,Clear,300,2013-03-09 03:58:00
9:58 PM,33.8,16.7,50,29.94,10.0,WNW,8.1,-,N/A,,Clear,300,2013-03-09 04:58:00
10:58 PM,31.5,18.3,58,29.94,10.0,NNW,4.6,-,N/A,,Clear,330,2013-03-09 05:58:00
11:58 PM,32.2,21.4,64,29.96,10.0,WNW,11.5,-,N/A,,Clear,300,2013-03-09 06:58:00